STARLINK-11270, 60999

Orbit data source: Space-Track

STARLINK-11270, 60999 is a payload satellite owned by SpaceX/Seattle (US) in LEO that was launched on Thu, 05 Sep 2024 UTC via an FALCON 9 launch vehicle from the Air Force Eastern Test Range (AFETR). Payload-class satellites include a variety of spacecraft equipped with specific instruments for various scientific and technological missions. These include communications satellites like Starlink; space stations such as the ISS; scientific satellites like the Hubble; Earth observation satellites from companies like Planet Labs, Umbra, and HawkEye 360; GPS; miniature CubeSats for education and research; and military/defense satellites.

Loading next visibility...
Identifier
60999, 2024-158K
Orbit
LEO
Country
Flag of USUS
Related business
Manufacturer
SpaceX/Seattle
Mission
Operational Commercial Communications
Bus & Motor
STARLINK V2MD, Unknown motor
Mass
960 kg wet, ~910 kg dry
Launch date (UTC)
2024-09-05 (1 year ago)
Launch vehicle
FALCON 9
Launch site
Air Force Eastern Test Range (AFETR)
Object type
Payload
Rocket body
Debris
Shape & HBR
Box + 2 Pan, 18.1 m
Radar Cross Section
36.964 m², Large (>1 m²)

Expand to show TLE details & history
Last TLE update: 17 hours ago

TLE from 17 hours ago
0 STARLINK-11270
1 60999U 24158K   26033.54416889  .00125743  00000-0  10253-2 0  9997
2 60999  53.1572  94.5910 0001568  84.6548 275.4648 15.69750822 82068
Epoch: 2026-02-02T13:03Z
TLE epoch observation values (Epoch: 2026-02-02T13:03:36.192Z)
Latitude
-0.00006°
Longitude
125.95222°
Altitude
360.424 km
Speed
7.694 km/s
True Right ascension
06h 18m 21s
True Declination
0° 00' 00"
Sunlit
Object was in full shadow at epoch
Visualization orbit readout
Latitude
Unknown
Longitude
Unknown
Altitude
Unknown
Speed
Unknown
Apparent Right ascension
Unknown
Apparent Declination
Unknown
Sunlit
N/A
Visualization observer readout
Local Sidereal Time
07:49:01
Azimuth
Unknown
Elevation
Unknown
Doppler factor
Unknown
Orbital elements
Apogee altitude
360.928 km
Perigee altitude
358.815 km
Semi-major axis
6,738.008 km
Eccentricity
0.00016
Inclination
53.1572°
RAAN
94.591°
Arg. of periapsis
84.6548°
True anomaly
275.44691°
Mean anomaly
275.4648°
Eccentric anomaly
275.45586°
Mean motion
3.92415 °/min
Orbital period
91.74 mins
BSTAR
0.0010253
Loading maneuver chart data...
Computing Atmospheric mass density...
Loading historical data...
Loading historical data...
Loading historical data...
Loading historical data...
Loading historical data...
Loading historical data...
Loading historical data...

Documentation

Showing up to 5 results
|